Theta_e
304 304 307 305 307 306 308 309 312 314 312 308 305 304 303 303 301 301 300 299 299 298 298 299 299 299 299 301 300 301 302 305 307 312 312 309 308 306 305 304 302 302 301 300 300 299 299 298 298 299 300 301 301 302 303 304 305 306 308 310 310 311 312 314 314 314 318 321 319 315 314 315 313 310 310 312 315 315 315 317 319 320 319 320 321
304 304 307 305 305 306 308 311 314 314 310 308 306 303 302 302 302 300 299 299 298 297 297 298 298 298 299 299 300 301 303 305 306 310 309 306 305 305 304 302 301 300 300 298 298 298 298 298 297 299 300 300 300 300 301 302 303 304 305 306 307 309 312 312 314 315 313 312 312 312 310 310 308 309 307 309 311 312 312 313 316 317 317 318 319
305 305 305 305 305 305 309 313 314 313 310 307 304 302 302 302 302 299 299 299 299 298 296 296 297 298 299 299 300 301 303 305 308 309 307 305 304 303 302 301 300 299 298 298 298 298 297 297 297 298 299 299 299 300 301 301 302 301 302 304 304 305 308 310 312 312 311 308 307 306 306 307 306 304 305 307 309 308 308 310 312 314 315 316 318
306 305 304 304 303 306 309 312 313 313 310 307 305 303 302 302 302 299 298 297 296 298 297 295 296 297 298 299 300 301 303 305 308 307 305 304 304 302 301 300 299 299 299 298 298 298 297 297 297 298 298 298 298 299 299 300 300 300 300 301 302 303 304 306 307 308 306 304 303 302 303 303 303 303 303 305 306 305 306 308 311 311 312 314 316
305 305 304 304 304 305 308 311 312 312 310 307 305 305 304 303 302 298 296 295 295 295 296 297 295 296 296 297 299 300 302 304 305 306 305 304 301 300 299 298 299 298 298 299 300 298 298 297 297 298 298 298 298 298 298 298 298 299 299 300 301 302 303 303 303 303 302 300 300 301 301 301 301 301 301 300 303 303 303 304 307 307 309 311 314
305 305 303 304 304 304 306 309 310 311 310 308 306 304 303 301 299 299 296 295 294 294 294 295 296 295 296 297 298 299 300 301 302 301 300 300 299 298 297 297 297 297 297 298 298 299 298 298 298 298 297 297 297 298 298 297 298 298 298 299 299 301 300 301 301 301 300 298 298 297 298 296 298 298 298 299 300 299 300 301 304 305 305 307 310
305 304 303 303 303 303 305 308 309 310 309 307 305 303 301 300 298 297 297 294 293 293 293 293 295 294 296 297 298 299 300 300 300 300 299 298 297 296 296 296 296 296 296 296 296 298 299 299 299 298 298 298 297 298 298 298 297 297 298 298 299 299 299 298 299 298 297 297 296 296 295 296 296 295 297 298 299 298 297 298 299 302 303 304 306
304 305 303 303 302 303 304 307 307 308 308 306 303 302 300 299 298 298 296 294 293 292 292 292 294 295 296 296 298 300 299 300 300 299 298 298 297 296 296 296 295 295 295 295 296 296 298 300 300 300 299 299 299 299 299 298 298 297 297 298 298 298 297 297 297 296 296 295 294 294 294 294 294 296 297 296 296 297 297 297 297 297 299 302 306
304 305 303 303 302 302 305 307 308 308 306 304 302 300 299 298 297 297 296 296 296 293 292 292 293 294 295 295 296 298 299 300 300 298 297 296 296 296 296 295 296 295 295 295 295 295 296 299 301 300 301 301 300 300 300 301 298 296 297 298 298 297 296 296 295 295 294 294 293 294 293 292 292 293 292 292 292 293 295 297 296 297 298 300 303
304 304 303 302 302 303 305 306 305 305 304 302 301 300 298 298 297 296 296 295 295 293 291 292 292 293 294 295 296 297 297 300 302 300 299 297 296 295 296 295 295 295 295 295 295 295 295 295 300 302 300 300 299 298 297 298 299 298 297 297 297 296 295 295 294 294 293 292 292 292 291 290 290 292 292 292 294 295 295 295 293 295 297 298 301
303 303 303 302 302 303 304 304 304 304 303 302 301 299 298 298 297 296 295 294 293 293 291 290 291 292 293 294 294 295 296 299 297 295 295 296 296 295 295 295 295 294 294 294 294 295 294 295 295 300 299 297 296 296 296 296 296 296 296 296 298 297 295 294 293 293 292 291 291 291 290 289 290 291 292 292 292 293 293 294 293 294 294 294 293
303 302 303 301 302 303 303 303 303 303 303 302 300 299 298 298 297 296 295 294 294 290 289 289 290 291 292 293 293 295 296 297 294 294 294 295 296 296 295 295 295 294 294 293 294 294 294 294 294 295 299 297 295 293 295 295 295 295 295 295 293 293 293 295 294 292 291 290 289 289 290 288 288 290 290 290 290 292 293 293 292 292 293 293 294
302 302 301 302 302 302 303 303 303 302 302 302 301 300 298 298 298 297 296 296 292 290 289 289 289 290 292 292 293 294 294 295 294 294 294 293 294 296 295 295 295 294 294 293 293 293 294 294 294 293 294 298 296 293 292 293 294 294 294 294 295 293 290 290 292 293 292 290 289 288 288 288 288 288 290 290 291 290 291 291 291 291 293 294 294
301 302 301 302 302 302 303 303 302 302 302 302 301 300 299 298 298 298 298 296 292 290 289 289 289 290 291 291 291 292 293 294 293 294 294 293 293 295 295 295 295 294 294 294 294 293 293 293 293 293 293 294 295 293 292 291 291 291 291 291 292 293 292 292 291 291 291 290 289 287 289 290 287 288 291 290 289 289 289 290 290 290 291 292 295
300 300 301 302 302 302 302 302 302 302 302 301 301 300 299 298 298 299 296 295 292 291 290 289 290 290 289 290 291 290 292 292 292 292 293 293 293 295 296 296 295 294 294 294 295 293 292 293 293 292 292 293 295 294 291 290 290 290 290 290 290 291 291 291 291 291 290 290 289 289 289 290 289 290 290 290 289 289 291 290 290 290 292 294 295
300 300 301 301 301 302 301 301 302 301 301 300 300 299 298 299 298 299 297 295 295 293 292 290 288 288 288 288 289 289 291 291 291 292 292 292 294 295 294 293 293 293 293 293 294 295 293 292 292 292 292 293 293 292 292 291 289 288 288 289 289 290 290 292 291 291 291 290 289 289 289 289 289 289 290 289 289 290 290 290 290 290 291 290 289
299 300 301 301 302 301 301 301 301 301 301 300 299 299 298 297 297 299 296 295 294 292 292 291 290 289 289 288 288 288 289 291 291 291 291 291 292 293 293 293 292 291 291 291 292 295 296 293 292 292 292 292 291 289 290 289 288 287 287 287 288 288 288 290 290 290 290 290 289 288 289 288 289 289 289 289 288 289 288 287 285 287 288 287 288
300 301 301 301 302 301 301 301 301 301 300 300 299 299 298 298 298 299 296 295 293 293 293 291 292 292 290 289 289 288 289 291 291 291 291 291 293 291 291 291 290 291 290 290 291 293 298 297 295 291 291 291 290 289 289 290 287 287 287 287 287 287 287 289 289 289 290 288 288 287 287 288 288 288 288 288 288 288 286 283 285 287 287 287 286
300 300 301 301 301 301 301 300 300 300 300 299 299 298 298 298 299 298 296 296 295 294 294 291 291 291 292 292 293 287 288 291 291 290 290 291 292 290 290 290 290 289 290 290 290 291 293 295 295 293 292 291 289 289 288 288 287 287 287 286 286 286 286 288 288 287 287 287 286 287 286 286 287 287 288 287 287 288 287 286 286 286 285 286 287
300 301 301 301 301 300 300 301 300 300 300 299 299 299 299 298 297 296 296 296 295 294 294 292 289 288 289 288 290 288 287 289 291 290 290 291 291 290 289 290 291 289 290 290 290 290 291 292 292 290 289 289 289 288 288 288 287 287 287 287 287 285 288 288 289 287 286 286 285 285 285 285 285 286 286 286 286 288 286 286 286 286 286 286 286
300 300 300 300 300 300 300 300 300 299 299 299 299 300 299 298 296 296 295 295 294 292 292 290 289 288 288 289 289 289 289 287 290 289 290 290 290 289 288 288 288 288 289 289 288 289 290 290 291 290 289 289 288 288 288 288 288 288 287 287 287 288 288 287 287 286 285 285 285 285 284 284 284 285 285 285 285 285 286 286 286 286 286 286 285
300 299 299 300 300 300 299 299 300 300 299 299 298 298 298 298 297 296 296 295 293 291 291 290 288 289 289 290 290 287 292 291 289 289 289 290 290 290 290 291 289 289 289 288 288 289 289 290 290 290 289 288 288 288 288 288 288 288 286 287 287 287 287 287 286 285 285 284 284 283 283 283 283 283 284 284 283 285 284 285 285 286 287 287 286
299 299 299 299 300 299 299 299 300 300 299 299 298 297 297 297 297 296 295 294 293 291 289 288 289 289 287 286 287 287 287 290 290 289 288 289 289 289 289 290 290 292 289 289 289 289 291 291 292 290 288 288 288 288 287 287 288 287 287 286 285 286 286 286 285 284 284 283 283 282 282 282 282 282 282 282 283 283 284 284 285 285 286 287 288
299 299 299 299 299 299 299 299 299 299 299 298 298 296 296 296 296 296 295 295 293 291 289 289 288 287 286 286 287 288 286 284 288 288 288 288 288 288 289 289 290 290 290 289 289 290 289 290 290 288 288 288 288 287 287 287 287 286 286 286 284 284 285 284 283 283 283 283 282 281 281 281 281 281 281 282 282 282 283 284 284 285 285 286 287
298 298 298 298 298 298 299 298 298 298 298 298 297 296 295 295 295 294 295 295 294 292 289 289 288 287 286 285 285 286 285 284 282 288 287 287 288 288 288 288 288 289 291 292 292 291 290 289 288 288 288 288 287 287 287 286 286 286 285 285 285 283 283 283 283 282 282 281 281 281 281 281 281 281 282 282 282 283 283 284 284 285 285 286 286
298 298 298 298 298 298 297 297 297 298 297 297 298 297 296 296 296 293 295 295 294 293 291 290 288 287 285 284 285 285 284 284 283 283 288 289 288 288 289 289 291 291 292 291 291 289 289 289 289 289 289 288 288 287 286 286 285 285 285 285 284 283 282 281 282 281 280 281 281 280 280 280 280 281 282 282 281 280 282 282 282 283 284 283 284
299 298 297 297 297 297 297 297 296 296 296 295 297 297 296 296 295 294 294 294 294 293 292 291 290 288 287 285 285 286 286 285 284 282 282 283 285 288 288 290 290 291 292 292 291 290 290 290 288 288 288 287 287 287 286 285 284 283 283 283 283 283 283 282 280 280 281 280 280 280 280 280 281 281 280 280 280 280 281 282 281 282 283 282 282
298 297 297 297 297 297 297 297 297 296 295 295 295 294 294 295 294 294 293 293 293 292 292 292 291 289 288 286 285 286 286 285 284 282 282 284 285 284 287 288 287 287 288 288 289 291 290 289 288 288 287 286 285 284 284 284 284 283 282 282 281 282 283 283 281 280 280 280 279 280 280 279 279 279 280 280 279 280 281 281 281 281 282 282 281
299 298 297 297 297 297 298 298 298 296 295 294 295 295 294 293 294 294 294 295 295 294 293 293 293 291 290 288 286 286 287 286 286 285 285 285 285 284 285 286 286 288 290 290 291 289 287 287 286 286 286 285 284 283 283 283 283 283 283 282 281 280 280 280 280 279 279 279 279 279 278 278 278 278 279 279 279 279 280 280 281 280 281 281 280
298 297 297 297 297 297 297 297 297 296 295 295 293 290 288 291 291 293 292 294 293 293 293 294 295 292 290 289 289 289 288 288 288 286 286 287 286 286 288 288 288 289 289 289 288 286 286 285 285 285 284 284 284 283 283 283 282 282 282 281 281 281 280 279 279 279 280 279 279 278 278 278 277 278 278 278 278 279 279 279 279 280 280 280 279
298 297 297 297 296 297 297 297 297 296 295 294 292 292 288 287 288 289 290 292 291 290 291 291 292 291 293 290 289 289 287 287 288 287 287 288 288 288 288 288 288 288 288 287 286 286 285 285 285 285 284 285 284 284 283 283 282 282 281 281 281 280 279 279 278 279 279 278 278 278 277 277 277 277 277 277 278 278 279 279 280 280 279 279 279
298 297 297 297 296 296 297 297 296 295 294 294 292 291 290 288 287 286 288 289 290 290 289 289 290 290 290 291 291 287 288 288 287 287 288 287 288 288 288 288 288 288 288 288 284 284 285 285 284 284 284 284 284 284 283 283 282 282 281 280 280 280 279 278 278 278 278 277 277 277 277 277 277 277 277 277 277 277 278 278 278 278 279 279 279
298 298 297 297 297 296 297 296 296 295 294 293 292 291 290 290 289 286 285 287 288 288 289 289 289 290 290 289 290 288 287 287 287 288 288 288 288 288 288 288 288 288 288 286 284 283 284 284 284 284 284 284 284 283 283 283 282 282 281 281 280 279 278 278 278 277 277 277 277 276 276 276 276 276 276 277 277 276 277 277 278 278 278 278 279
299 298 297 297 296 296 296 296 296 295 295 294 293 291 291 291 291 289 286 284 284 285 287 289 289 289 289 289 289 288 287 287 287 287 287 287 288 288 288 288 289 289 288 286 285 285 284 284 284 284 284 283 283 283 283 282 282 282 281 280 279 279 278 278 277 277 276 276 276 276 276 276 276 276 276 276 277 277 277 277 277 277 277 278 277
299 295 292 294 297 297 297 297 296 296 295 294 293 291 291 290 290 289 287 287 286 286 285 285 288 289 288 288 288 288 287 287 287 287 287 288 288 288 288 287 286 286 286 285 285 285 284 284 284 284 283 283 283 283 283 282 282 281 281 280 279 278 278 277 277 276 276 276 276 275 275 276 276 276 276 275 276 276 276 277 277 277 277 278 278
299 299 297 295 297 297 297 297 297 296 295 294 294 293 292 290 288 288 288 287 288 287 285 285 286 288 289 288 288 288 287 287 287 287 288 288 288 288 286 285 286 286 285 285 285 285 285 285 284 284 283 283 283 282 282 282 282 281 281 280 279 278 277 277 276 275 275 275 274 275 275 275 275 275 276 276 276 276 276 276 277 277 277 278 278
299 299 298 297 297 297 297 297 296 296 292 293 293 292 290 289 288 288 287 287 286 286 286 284 283 285 286 287 289 288 288 287 287 288 288 288 288 288 287 287 286 286 285 284 284 284 284 284 284 284 283 283 282 282 282 282 281 281 281 280 279 279 278 277 276 274 275 274 274 274 275 275 275 275 275 275 275 276 276 276 277 277 277 277 277
299 299 299 298 298 297 297 296 296 291 293 293 293 292 290 289 288 287 286 286 286 285 284 283 285 284 284 284 290 287 287 287 288 288 288 288 286 286 285 286 286 286 285 284 284 284 284 284 283 283 283 283 282 282 282 282 281 281 281 280 279 279 278 277 275 275 274 274 274 274 273 274 274 275 274 274 273 274 275 275 276 276 276 277 277
300 294 292 291 293 298 297 296 294 294 293 292 292 291 290 289 288 287 287 286 285 285 284 283 283 283 285 285 287 287 286 285 284 283 284 285 286 285 284 284 285 285 285 284 284 284 284 283 283 282 282 282 282 281 281 281 281 280 280 280 280 279 277 276 275 274 273 273 272 272 272 273 273 274 274 273 273 273 274 274 275 275 276 276 277
299 299 294 290 294 295 295 294 294 293 292 292 292 292 291 289 289 288 287 287 286 285 285 284 283 284 285 284 285 285 283 282 283 283 283 284 284 285 284 284 284 285 284 284 284 283 283 283 283 282 282 281 281 281 281 281 281 280 280 280 279 278 277 276 275 274 273 272 271 271 272 272 272 273 273 273 273 273 273 273 273 275 276 276 277
300 299 293 292 293 295 295 294 294 294 293 292 292 291 291 291 290 289 289 288 287 286 286 286 286 285 285 285 286 286 284 283 283 283 284 284 284 285 284 284 284 284 284 284 284 283 283 283 282 282 282 281 281 281 280 280 280 280 279 278 278 276 277 276 275 274 274 272 271 271 271 271 271 272 272 272 273 273 272 273 274 275 276 276 277
300 299 297 294 294 296 296 294 295 293 293 293 292 292 291 291 291 291 289 288 288 287 287 287 287 286 286 287 287 287 286 285 285 284 285 285 284 284 285 285 285 285 285 284 284 283 283 283 282 282 282 281 281 281 280 280 280 280 279 278 278 276 275 275 275 274 273 272 271 271 271 271 272 272 272 273 272 272 273 273 274 275 276 276 277
300 299 298 295 295 296 296 295 296 295 294 293 292 290 291 292 291 291 290 289 289 288 288 288 288 287 286 286 287 286 286 286 284 285 285 285 285 284 284 284 285 285 285 285 285 284 284 283 282 282 282 281 281 280 280 280 280 280 279 278 277 276 275 274 274 274 273 271 271 271 271 271 271 271 271 271 272 272 273 273 273 274 275 276 276
299 297 297 296 295 295 296 297 296 295 295 293 292 292 292 292 292 291 291 291 290 290 289 290 289 288 287 286 286 286 286 286 286 286 285 285 285 285 285 285 285 285 285 285 284 284 284 283 282 282 281 281 281 280 281 281 281 280 279 277 275 274 275 274 273 273 271 270 270 271 271 271 270 270 270 271 272 272 272 272 272 273 274 275 276
299 298 297 297 296 296 296 296 295 295 294 293 293 293 292 292 292 292 291 291 290 291 291 290 290 289 288 287 287 286 286 287 287 286 286 286 285 286 286 286 285 285 285 284 284 283 284 283 283 282 280 281 280 280 280 280 280 280 280 278 276 274 274 274 275 274 273 270 270 271 271 271 270 270 270 271 271 271 271 271 272 273 274 275 275
299 298 296 297 295 295 295 296 294 296 295 295 294 294 293 293 293 292 291 291 291 291 291 291 291 290 289 289 288 287 287 287 287 287 287 286 286 286 286 286 286 286 285 284 283 283 283 283 282 282 281 280 279 280 279 279 279 279 279 278 278 277 277 277 276 274 273 272 271 271 271 271 271 271 271 271 271 271 271 271 272 273 274 274 274
299 298 297 296 296 294 295 296 296 296 296 295 295 295 294 294 294 293 291 291 291 291 291 291 291 290 290 290 289 288 288 288 288 288 288 287 287 287 287 287 286 286 285 284 283 283 282 282 283 282 282 281 280 279 279 279 279 279 278 278 278 277 277 276 275 275 275 274 273 271 271 271 271 271 270 270 270 270 270 270 271 273 274 274 274
299 298 297 296 296 296 295 296 295 292 295 295 294 295 294 294 293 293 293 292 292 292 292 292 292 291 290 290 290 290 289 289 289 289 288 288 288 287 287 286 286 286 285 284 283 283 283 283 282 282 281 280 280 280 279 279 279 278 278 278 277 276 275 273 275 275 275 274 274 273 272 271 271 271 270 270 270 270 270 271 272 274 274 274 274
299 298 297 296 296 296 296 296 295 295 295 295 295 294 294 294 294 294 294 294 293 293 293 293 293 292 291 291 291 291 290 289 290 289 289 289 288 288 287 287 286 286 285 284 283 282 283 283 282 282 282 281 281 280 279 278 278 278 278 277 275 272 271 272 273 275 273 274 274 273 273 272 271 271 270 270 270 270 270 271 273 274 274 274 273
299 298 297 296 295 296 296 296 296 296 295 295 295 295 294 294 294 294 294 294 294 293 294 293 293 293 292 291 291 291 291 290 290 290 290 289 289 288 288 287 286 285 285 284 283 283 283 283 282 282 282 281 281 281 280 279 278 278 277 277 272 270 271 270 271 271 272 274 274 274 273 272 272 272 271 271 271 271 271 272 273 273 273 273 273
298 298 297 297 297 296 296 296 296 296 296 295 295 295 295 295 295 294 294 294 294 294 294 294 294 293 293 293 291 291 291 291 291 291 290 290 289 288 287 286 286 285 285 284 283 283 283 283 282 282 282 281 281 280 280 279 279 278 276 273 271 271 270 270 272 270 270 271 274 274 273 272 272 272 272 272 272 272 272 272 273 273 273 273 273
Wind_Speed
2 2 0 0 2 3 4 3 4 6 7 7 7 6 5 5 6 4 4 6 5 6 6 6 6 5 6 6 6 6 7 7 7 6 8 8 8 8 8 8 9 8 8 9 9 8 8 7 8 8 7 7 7 6 7 7 7 6 7 7 8 9 7 4 4 2 5 8 8 8 9 10 8 12 10 9 10 10 9 8 9 9 9 8 8
3 3 1 0 1 3 3 2 4 6 7 6 7 6 6 6 4 5 7 5 5 6 6 5 5 6 5 6 7 7 7 7 7 6 8 8 9 7 8 9 10 9 8 9 8 7 6 7 8 8 7 7 7 8 7 7 8 7 8 7 7 7 7 6 5 5 6 8 8 8 8 10 7 10 10 10 11 10 10 9 7 9 9 8 8
4 2 1 0 1 2 2 3 5 7 7 6 7 6 6 6 4 6 5 5 5 6 6 6 6 6 6 6 6 7 7 7 6 7 8 9 9 9 9 10 10 9 10 9 8 6 8 8 8 7 6 7 8 7 7 8 8 8 8 7 8 8 8 8 6 6 7 6 7 8 8 8 8 10 11 8 8 8 9 9 8 8 7 8 7
3 2 1 0 1 2 3 3 5 6 7 6 7 6 5 5 5 6 5 5 6 5 6 6 6 6 7 7 7 7 7 7 7 9 10 9 9 10 10 10 9 8 8 8 8 8 8 8 8 8 7 8 8 8 7 7 8 7 8 8 8 9 9 8 9 6 5 5 8 8 8 8 7 10 9 7 8 9 8 7 7 8 8 7 7
3 3 2 2 1 3 3 4 5 6 6 6 6 5 5 5 5 6 5 6 6 6 6 6 6 7 6 7 6 7 6 7 8 8 8 8 10 9 9 8 8 8 8 8 8 7 8 8 7 8 7 8 8 8 8 10 8 7 8 7 7 7 7 8 8 8 7 7 6 6 6 5 5 6 10 10 9 8 8 10 9 9 9 7 6
4 3 3 2 0 2 3 4 5 7 7 6 6 6 5 5 6 5 5 6 7 7 7 6 6 7 6 6 6 6 7 7 8 8 8 8 8 8 7 7 7 7 7 7 7 6 7 7 7 8 8 8 8 7 8 9 8 8 9 8 7 7 8 8 8 8 8 7 7 7 9 9 8 7 10 10 8 10 11 9 7 10 10 10 10
4 3 3 3 1 2 3 5 5 6 7 7 6 5 6 6 6 6 4 6 7 7 6 7 5 6 6 6 7 7 7 7 8 8 7 7 8 8 7 7 7 7 7 7 6 6 6 6 7 7 8 8 8 8 7 8 7 9 8 7 7 7 8 8 8 8 8 7 6 7 6 7 7 9 10 9 5 7 10 10 10 10 8 9 9
5 4 3 3 2 2 2 5 5 6 6 6 6 6 6 6 6 5 5 7 7 6 6 6 5 5 6 6 6 5 7 7 7 7 7 7 7 7 7 7 7 7 7 7 7 6 6 6 7 7 9 9 8 7 7 7 6 8 7 7 7 8 8 8 8 8 8 8 7 7 7 6 7 6 6 8 6 5 10 9 9 11 11 9 8
5 5 3 3 3 2 4 4 5 7 7 7 7 6 6 6 6 6 5 5 5 5 5 5 5 7 7 7 7 6 7 6 5 6 7 7 6 7 6 6 6 6 6 7 7 7 7 5 7 9 13 16 18 15 14 12 7 8 8 7 8 7 7 7 7 7 7 6 7 6 6 8 8 10 11 12 12 10 10 9 7 8 8 7 7
6 5 4 4 3 4 5 5 6 6 7 7 7 6 6 6 6 6 6 5 5 4 5 5 6 6 7 7 7 7 6 5 7 10 8 7 7 6 6 6 6 6 6 6 6 7 7 6 8 17 16 16 15 13 14 15 17 13 9 8 7 7 7 7 7 6 6 7 8 7 8 9 9 10 9 8 8 8 9 10 10 9 7 6 2
6 6 6 3 4 5 6 6 6 7 7 7 6 7 6 6 6 6 6 6 6 5 5 7 7 6 7 7 8 7 6 5 8 10 11 11 7 7 6 6 6 6 6 6 6 6 6 7 6 10 11 11 10 13 14 15 14 15 17 18 15 9 6 8 8 7 6 7 6 7 7 8 9 9 8 8 8 9 8 8 8 8 10 11 10
7 6 5 4 5 6 6 7 6 6 7 7 7 6 6 6 6 6 6 6 5 4 7 6 6 5 5 7 7 5 6 7 8 10 11 10 9 7 6 5 5 6 5 6 5 5 6 6 6 5 7 9 7 7 10 13 14 14 14 15 16 17 15 10 7 7 7 6 7 8 7 8 8 9 10 10 10 8 8 7 8 8 8 9 8
7 6 5 5 6 6 7 7 7 7 7 7 7 6 7 6 6 6 6 4 4 6 6 6 6 5 5 7 6 5 5 7 8 9 10 10 10 7 6 5 5 6 6 6 6 6 5 6 5 6 6 12 8 7 7 8 11 14 14 13 16 17 15 16 15 10 6 7 7 8 9 7 8 9 10 10 9 8 8 8 9 7 6 5 7
7 6 6 6 7 7 7 7 8 7 7 7 7 7 7 7 6 5 5 5 5 6 6 6 5 6 5 5 6 5 5 6 8 8 9 9 9 8 6 6 5 5 6 6 5 5 6 5 5 6 6 7 6 7 7 7 7 7 8 8 9 12 13 15 14 14 11 7 7 8 8 8 8 8 10 10 10 9 8 8 9 8 7 7 7
6 7 7 6 7 7 7 7 8 7 7 7 7 7 7 6 6 5 5 4 5 5 5 6 5 5 5 5 5 6 4 7 7 8 8 8 8 6 6 5 5 5 5 5 5 5 5 5 5 5 5 6 6 7 7 6 6 6 7 8 8 8 9 10 9 8 8 7 7 7 7 8 8 9 9 9 9 7 6 6 7 7 6 5 2
7 6 7 7 8 8 8 7 8 8 8 7 7 7 7 7 7 5 4 4 4 5 5 5 5 6 5 5 6 6 5 7 7 7 7 7 7 5 6 6 6 5 6 5 5 5 5 5 5 6 6 6 9 10 8 5 6 7 7 7 7 7 8 10 11 10 9 7 7 8 8 9 10 10 11 10 8 7 5 1 2 5 5 5 7
8 8 7 8 8 8 8 9 8 8 8 8 8 7 7 6 5 5 6 5 5 4 5 5 4 5 5 4 6 5 5 6 6 6 6 6 5 5 5 5 5 6 5 5 5 4 5 5 5 5 6 6 8 9 8 7 6 6 6 6 5 6 7 6 9 9 9 9 9 10 9 10 10 12 14 16 14 10 4 6 12 10 9 9 8
8 8 8 8 9 8 8 9 9 9 8 9 8 7 6 6 7 6 7 6 5 4 4 5 4 4 5 5 4 6 5 5 6 5 6 6 4 6 5 6 6 5 5 5 4 5 7 12 8 6 6 6 8 10 8 6 7 5 5 6 6 7 6 5 4 5 6 7 7 7 10 10 11 12 15 17 18 15 11 10 7 6 6 6 6
9 10 9 8 8 8 8 8 9 10 9 8 8 8 8 8 6 6 6 6 6 5 4 5 4 4 4 5 7 6 4 5 6 5 5 5 4 4 5 6 6 5 5 6 5 5 6 7 10 8 8 8 10 10 9 7 6 5 4 6 6 7 6 5 5 6 6 5 6 7 8 11 10 10 11 16 17 15 10 8 7 7 7 6 7
9 8 8 8 8 8 7 8 8 9 9 8 7 8 7 6 7 7 6 6 6 5 4 4 5 4 4 4 4 4 5 4 5 5 5 5 4 4 3 6 6 6 5 5 6 5 5 5 6 8 10 10 11 11 10 9 7 5 4 6 6 6 5 5 6 6 6 6 5 6 6 6 7 7 8 9 10 12 10 9 8 6 6 5 6
8 8 8 8 8 8 7 8 9 8 9 9 8 6 7 8 7 7 7 6 6 5 5 4 5 4 3 3 4 4 4 4 4 6 6 5 5 4 4 5 5 6 5 5 5 6 5 4 4 7 10 11 11 12 12 12 10 7 7 7 6 5 4 4 5 7 4 5 4 4 5 5 6 7 8 8 9 9 9 9 8 7 6 6 6
8 8 8 9 8 8 8 6 7 8 6 7 8 7 6 7 8 8 7 8 8 7 5 4 4 4 2 2 3 3 4 6 4 5 6 6 5 4 4 3 4 7 7 5 5 5 5 4 4 7 11 11 11 12 13 13 12 9 9 10 9 8 5 4 3 3 4 4 5 6 7 7 7 8 8 8 9 9 8 8 9 8 6 6 7
9 9 8 9 8 8 8 8 7 5 7 8 9 8 7 7 7 8 9 8 8 8 6 5 5 4 2 2 2 3 3 3 6 4 5 5 4 4 3 3 4 3 7 7 6 6 4 5 6 10 11 12 12 12 12 12 11 9 11 11 10 8 5 4 4 4 5 5 6 7 7 8 8 8 8 8 8 9 7 8 8 8 7 6 7
9 9 8 8 8 8 8 8 7 7 8 8 7 8 8 7 7 7 8 8 7 7 6 5 5 5 5 3 1 0 2 2 3 5 3 4 4 3 3 4 4 3 4 7 5 6 6 5 6 10 12 12 12 13 13 12 9 11 10 10 9 8 4 4 4 5 4 5 7 7 7 7 6 7 8 7 7 8 7 7 8 8 7 6 6
9 9 9 8 9 8 7 7 7 7 7 8 8 7 8 8 7 6 8 7 7 8 7 6 7 6 5 5 4 3 1 1 1 2 2 2 2 2 3 4 4 5 6 4 5 5 7 9 10 10 11 11 11 11 10 11 11 10 10 10 8 5 4 4 4 4 6 6 5 5 5 6 6 6 6 6 5 5 6 6 6 6 6 5 4
9 10 9 8 9 8 8 7 7 7 8 7 8 8 9 8 8 7 7 7 7 8 7 7 6 6 6 5 5 5 3 2 1 0 1 1 1 1 3 4 5 5 5 7 8 10 11 10 10 10 8 7 6 6 6 7 10 10 10 9 5 5 4 4 5 6 5 4 5 5 5 5 5 5 5 5 6 8 8 7 7 7 7 6 4
10 9 10 9 8 9 10 8 7 7 7 6 6 7 7 8 8 8 8 8 7 7 7 6 6 6 6 6 5 4 4 4 4 3 2 2 2 2 3 4 4 5 6 6 7 7 7 6 6 8 9 10 10 8 7 6 6 6 5 5 4 5 5 5 5 4 4 4 4 4 4 5 4 5 6 6 7 7 8 7 7 7 8 7 5
11 11 11 9 9 9 9 11 11 8 7 8 7 6 6 8 9 9 10 9 9 8 8 7 8 9 8 7 6 5 5 5 5 6 5 4 4 3 4 4 6 6 7 6 6 6 7 7 8 5 5 5 4 4 4 4 4 4 4 4 5 5 6 6 5 4 4 3 2 2 3 5 5 6 5 5 6 7 8 7 8 7 8 8 7
11 10 10 9 9 9 9 9 9 9 8 7 7 8 9 9 8 7 7 9 10 11 8 8 8 9 8 9 8 7 6 6 7 6 7 6 8 7 6 6 6 5 6 8 7 5 5 5 5 4 3 4 3 3 3 3 4 4 4 4 4 4 4 4 4 5 4 4 4 4 4 4 4 4 4 4 6 7 7 6 7 7 6 7 7
10 10 10 10 9 9 8 9 9 9 9 8 7 2 3 1 4 7 8 8 9 9 11 10 11 9 8 8 9 9 10 8 7 11 10 9 8 6 6 6 5 6 7 8 6 6 4 5 4 4 3 3 3 3 2 2 2 3 3 4 3 3 4 4 4 3 4 3 3 4 4 4 4 5 5 5 5 6 7 8 6 7 7 8 8
10 10 10 10 11 11 10 9 9 8 8 9 8 8 5 1 5 2 3 6 9 8 9 6 7 12 11 8 7 4 1 5 12 13 12 9 8 8 8 8 8 8 10 8 4 5 5 5 4 3 3 3 3 3 2 2 2 2 2 2 3 3 3 3 3 3 3 3 3 3 3 3 4 4 5 5 5 5 5 6 6 7 7 8 8
12 12 12 11 12 11 10 10 9 9 8 8 8 8 8 7 2 4 4 5 7 7 7 8 10 12 12 9 8 5 5 9 12 14 11 11 10 9 8 8 8 9 9 6 4 4 5 6 4 4 3 3 3 2 2 2 2 2 2 2 2 2 3 3 2 2 2 2 3 3 3 3 3 4 4 5 5 5 6 6 7 7 7 7 7
12 11 11 11 11 12 10 10 10 10 10 9 9 9 9 9 9 6 1 5 4 5 7 7 9 12 12 10 13 11 10 11 14 12 11 12 11 9 8 8 8 8 8 5 4 4 4 4 5 4 4 4 3 3 3 2 2 2 2 2 2 1 2 2 1 2 2 2 2 2 3 3 3 3 4 4 5 5 6 6 6 6 7 7 7
14 12 12 13 12 11 11 11 11 11 10 11 10 10 10 9 10 8 8 4 2 3 3 5 9 11 10 11 12 9 11 14 14 14 13 12 10 9 7 5 7 8 6 7 6 6 5 5 4 4 4 3 3 3 3 3 3 3 2 2 2 2 1 1 1 2 2 2 2 2 2 3 3 3 3 3 4 4 5 6 7 7 7 7 7
11 12 15 13 11 12 12 11 12 11 10 10 10 11 10 10 9 9 10 10 9 9 7 5 5 10 9 9 10 11 12 13 14 13 12 11 10 10 9 7 5 3 3 4 6 6 6 6 6 5 4 5 4 4 4 4 4 3 3 3 3 2 1 1 2 2 2 1 2 2 2 2 3 3 3 3 4 4 5 6 6 7 7 7 7
12 10 10 13 12 11 11 11 11 11 12 12 12 12 10 9 9 9 8 7 8 8 5 5 5 5 7 7 9 11 12 13 12 12 11 11 11 13 7 6 7 7 7 6 6 6 6 6 6 5 5 4 4 4 3 4 4 4 4 4 4 2 2 2 1 1 2 2 2 2 2 2 2 3 3 3 4 4 5 5 5 6 6 6 6
12 11 11 11 12 10 11 10 10 11 11 11 10 10 9 9 9 8 8 8 8 7 7 6 5 3 2 3 6 8 11 11 11 11 10 10 12 10 6 7 8 7 7 7 7 6 5 5 5 5 5 5 5 4 4 4 4 4 4 3 3 3 2 2 2 1 1 1 1 1 1 2 2 2 2 3 4 4 4 5 5 5 6 6 6
12 12 12 12 11 10 9 10 11 12 10 9 9 10 10 10 10 10 10 10 9 8 8 7 7 9 10 8 8 6 7 8 8 5 5 5 6 7 7 6 7 9 9 7 8 8 7 5 5 6 6 5 5 5 5 4 4 4 4 4 4 3 5 3 3 2 2 1 1 1 1 1 1 1 2 3 3 3 3 4 4 5 5 6 6
10 14 15 15 15 14 12 11 10 10 10 9 9 10 11 11 10 10 10 9 10 9 9 8 9 10 9 8 8 7 8 7 7 7 8 8 7 6 7 6 7 8 7 8 8 7 7 7 6 5 5 5 5 5 5 5 4 4 5 5 4 4 4 2 2 2 2 2 2 1 1 1 1 0 2 2 2 2 2 3 3 4 5 5 5
14 12 13 18 12 15 11 11 11 11 11 11 10 10 10 10 11 12 12 11 11 11 10 10 11 11 9 9 9 8 10 10 10 10 9 8 8 7 8 9 9 9 9 8 8 8 8 6 6 6 6 5 5 6 5 5 5 5 5 5 5 4 4 3 2 2 2 2 2 2 1 1 1 0 1 2 1 1 1 2 2 3 4 5 5
14 14 12 16 15 12 10 10 10 11 11 12 12 11 12 12 12 11 11 12 11 11 11 12 12 10 10 14 18 19 13 12 11 10 10 11 9 9 10 10 9 9 8 9 9 7 8 7 6 6 6 6 5 6 6 5 5 5 5 5 4 3 3 3 3 2 3 3 2 2 2 1 1 1 1 1 2 1 0 1 2 2 4 5 5
13 11 11 10 12 12 13 13 14 15 13 13 12 12 12 12 11 10 11 12 12 12 12 11 11 9 12 20 21 23 14 10 10 10 10 9 9 10 10 8 7 8 8 9 10 9 8 8 7 7 6 6 6 6 6 6 6 6 5 5 5 4 3 3 3 3 3 3 3 3 2 2 2 2 1 1 1 1 1 1 2 3 4 4 4
13 11 11 11 12 14 15 16 14 11 11 12 12 12 13 13 12 12 11 12 12 12 12 12 10 9 11 18 19 21 12 9 10 11 9 10 10 10 9 9 8 8 9 8 8 8 8 7 7 7 7 7 7 7 7 7 6 6 5 6 5 5 5 3 3 3 3 3 3 3 3 2 2 1 1 1 0 0 1 2 2 3 3 4 5
11 12 11 12 13 14 13 12 11 12 12 15 15 14 14 13 11 11 11 11 11 11 12 12 11 11 10 12 13 12 11 11 10 10 10 9 9 9 9 9 7 6 5 6 7 6 6 7 7 6 5 5 5 5 6 5 6 6 6 6 5 5 5 4 4 4 4 4 3 4 3 3 3 2 2 1 1 1 1 1 2 2 3 4 5
11 11 11 11 12 12 11 8 9 11 13 11 11 11 11 11 11 12 12 11 12 12 12 11 10 10 10 11 12 14 14 12 12 11 10 10 10 10 9 9 9 9 7 7 7 7 8 7 7 8 7 6 5 6 6 5 5 6 6 7 7 6 6 6 5 4 4 6 6 4 4 4 3 3 2 2 2 1 1 1 1 3 3 4 5
12 12 12 12 12 11 12 14 14 13 13 12 12 12 11 12 12 12 12 13 12 12 12 11 10 11 11 12 13 13 13 13 13 12 11 10 10 10 9 9 9 9 9 8 8 9 7 8 9 8 9 7 7 6 5 5 6 5 6 6 6 6 5 4 4 4 4 5 5 4 4 4 3 3 4 3 2 2 2 2 2 2 3 4 5
12 12 12 12 13 13 14 14 13 13 13 14 14 13 12 13 13 13 13 14 14 13 12 11 11 11 11 12 12 13 13 13 12 12 13 13 13 11 10 9 9 8 8 8 9 8 9 9 8 9 9 8 7 8 7 6 5 6 5 5 5 5 5 4 5 5 4 4 4 3 4 4 4 3 4 4 3 2 2 2 2 3 3 4 5
10 11 11 12 12 12 13 13 14 14 13 12 12 12 12 13 12 12 12 12 13 12 12 11 11 11 11 12 12 12 12 12 12 13 13 13 13 11 11 11 10 10 9 9 9 8 7 7 9 9 9 9 8 8 7 7 5 6 6 5 5 5 8 9 5 4 4 4 4 4 5 4 4 3 3 4 3 3 2 2 3 3 3 4 4
11 11 11 11 12 13 12 13 12 12 12 12 13 14 12 12 12 12 12 12 12 12 12 12 12 11 11 12 12 12 12 12 12 12 12 12 12 11 12 12 11 10 10 10 10 10 8 7 9 8 8 8 7 8 7 6 7 6 7 6 8 13 14 13 8 6 7 5 4 5 4 4 4 4 4 4 4 3 3 3 3 3 3 4 3
11 12 12 12 12 12 12 11 12 12 13 11 9 9 9 10 11 12 12 12 11 12 12 12 12 12 12 12 12 12 12 12 13 13 11 10 11 11 11 11 12 11 11 11 10 10 8 8 9 8 7 7 7 8 8 8 8 8 6 8 14 15 15 14 11 11 9 5 6 5 5 4 4 4 4 4 4 4 3 3 3 3 4 4 4
11 11 11 11 12 11 11 11 11 11 11 12 13 14 14 14 13 12 11 11 12 12 12 12 12 12 12 12 12 12 13 13 11 10 11 12 11 11 12 12 12 12 11 11 10 10 9 8 9 9 9 8 8 9 8 9 8 9 11 15 17 16 16 14 10 11 11 7 5 5 5 5 5 5 4 4 4 4 4 4 3 3 4 4 4
Wind_Direction
217 219 266 334 44 18 0 25 71 86 85 83 82 74 67 60 52 54 53 42 28 34 30 23 15 12 10 19 18 16 9 12 2 39 63 65 56 54 48 46 54 45 41 39 33 32 31 31 25 19 8 19 18 12 15 13 11 18 17 16 25 22 21 16 13 11 46 33 38 28 11 11 24 10 2 358 360 2 5 7 2 9 11 9 0
225 235 237 56 52 9 1 28 96 98 95 88 83 76 68 57 49 46 54 38 38 35 31 20 16 12 22 19 21 17 13 18 11 25 66 62 57 49 45 47 53 47 42 42 33 30 24 32 24 15 12 20 18 21 11 13 13 10 18 11 11 11 5 19 359 18 36 27 12 12 15 13 15 13 7 355 357 356 1 359 2 10 6 5 4
214 210 186 143 14 12 21 80 117 112 104 93 84 78 70 64 50 55 50 41 40 43 29 24 19 18 30 28 22 22 9 21 22 49 60 63 63 57 52 53 53 50 48 42 37 26 34 33 24 11 4 23 25 21 15 18 15 20 14 11 16 15 8 12 15 31 30 40 13 8 6 3 19 359 357 355 356 360 1 2 357 3 8 2 6
215 196 214 332 14 45 50 94 108 110 104 105 98 87 81 70 60 59 52 46 44 33 38 28 29 28 33 29 27 23 24 13 42 51 57 58 61 63 62 60 57 53 53 48 37 36 35 34 23 13 10 28 21 21 20 21 25 22 21 16 22 26 24 23 28 36 32 32 18 17 357 359 1 359 356 349 3 9 7 344 352 10 4 4 6
196 201 194 222 24 50 61 100 113 112 113 111 102 93 83 75 66 63 54 52 42 41 33 30 37 33 33 27 22 30 27 29 47 51 53 56 63 65 63 61 56 55 50 46 46 39 38 41 26 20 18 30 20 20 15 21 21 26 27 22 25 23 29 34 35 41 47 40 15 14 5 9 359 357 5 357 349 2 10 8 0 357 1 5 359
196 187 190 211 186 65 84 107 113 123 121 111 104 96 85 75 70 61 54 59 53 46 40 32 39 35 34 29 35 37 34 40 52 57 60 63 66 66 64 62 57 52 45 39 36 37 42 40 36 30 27 32 22 16 16 20 21 26 26 24 24 26 37 38 38 41 48 43 28 6 14 8 356 12 6 359 1 358 357 357 357 5 4 360 15
191 193 194 214 183 94 116 120 123 129 121 115 110 99 88 81 73 63 52 59 60 52 37 44 35 40 33 34 35 35 46 49 58 65 68 70 72 71 68 62 59 53 45 41 31 28 37 40 42 39 37 31 28 20 16 22 25 28 23 25 20 33 38 37 35 39 41 38 33 31 13 14 11 359 358 357 2 33 7 352 359 358 358 2 4
188 198 190 211 177 137 138 127 125 120 115 114 110 103 96 85 77 73 64 60 56 50 44 49 36 45 38 43 36 41 50 56 61 69 67 69 76 72 70 67 63 57 50 42 35 28 23 39 43 48 49 40 37 27 25 31 24 36 21 27 26 36 41 36 35 35 34 34 30 17 16 358 6 2 344 356 9 28 21 7 357 352 350 345 8
185 195 186 207 193 165 128 124 123 117 117 117 112 106 98 89 82 72 61 60 59 49 51 47 51 53 45 44 43 38 47 49 60 77 85 75 74 74 66 62 61 63 57 50 41 35 26 22 51 53 58 54 48 46 47 48 39 39 28 23 34 38 44 44 42 39 36 35 27 16 11 19 15 2 5 14 16 358 341 357 357 359 342 339 13
176 190 192 205 146 143 128 128 124 120 123 123 120 115 106 101 93 80 67 61 60 59 51 55 53 49 55 49 47 44 40 37 61 76 80 92 81 78 72 61 58 54 57 54 47 43 37 23 43 55 53 52 47 42 46 48 51 53 45 32 30 39 45 47 43 38 40 39 30 13 19 21 11 9 6 4 352 344 355 5 6 351 348 343 11
182 176 204 181 140 137 129 134 133 131 131 127 125 120 115 107 95 85 74 63 54 56 56 58 49 42 49 55 55 48 38 41 59 78 81 87 90 81 77 69 59 55 50 48 44 40 37 39 25 43 46 41 36 36 44 45 47 52 53 51 48 45 38 45 44 33 40 45 31 29 26 16 11 3 6 350 355 0 360 2 1 359 12 11 1
176 186 193 144 147 143 138 139 137 136 134 136 131 128 121 109 101 96 85 75 70 66 64 56 53 46 54 61 62 54 52 41 66 77 84 85 89 87 72 71 62 54 50 48 42 38 38 40 37 23 41 50 43 25 37 42 44 46 50 54 51 46 44 45 44 41 34 40 39 32 23 23 4 6 360 357 352 351 1 5 13 5 359 16 12
176 182 168 156 155 149 142 147 145 145 146 140 136 132 128 117 113 104 91 90 84 74 69 70 58 51 60 71 66 51 62 40 62 75 83 84 83 84 73 69 66 54 52 49 44 39 33 40 41 34 21 40 39 34 35 35 40 45 44 44 51 48 43 42 41 48 40 45 46 40 29 10 15 10 2 351 338 353 354 10 6 358 353 0 13
176 175 165 164 161 152 150 150 152 152 147 141 140 139 137 135 129 117 103 85 84 85 78 76 67 62 66 71 74 57 58 33 56 66 76 80 80 82 78 70 62 55 51 48 46 44 40 45 42 36 21 28 33 35 34 37 39 41 41 40 41 40 39 40 39 38 40 43 40 43 23 26 26 4 1 357 2 1 354 3 358 352 349 351 350
181 169 168 168 160 152 152 155 149 150 149 145 143 142 142 138 134 127 112 108 96 91 89 86 77 64 61 68 78 58 38 39 56 62 68 76 75 80 70 72 67 59 50 46 50 51 48 52 54 49 32 32 40 46 45 37 45 48 47 43 38 34 38 36 33 35 35 32 40 40 28 27 25 13 8 8 9 357 349 5 354 337 311 299 235
181 169 168 168 167 162 156 156 151 149 150 149 146 146 153 153 146 138 115 97 84 90 83 82 77 74 60 66 77 61 34 36 59 68 71 73 81 79 75 73 72 62 47 36 38 59 59 54 56 48 37 44 42 45 52 54 56 60 57 47 45 35 38 34 28 34 41 38 38 38 33 28 26 24 22 17 11 5 359 339 338 352 349 16 20
185 178 174 173 170 165 160 154 152 153 154 154 156 155 152 149 142 135 122 126 112 91 86 80 80 89 81 66 83 76 47 36 54 74 80 92 94 81 85 82 72 66 47 27 28 52 82 68 65 63 48 53 49 52 53 64 65 62 59 56 47 43 31 12 15 16 27 34 40 33 30 27 25 27 26 25 25 9 341 24 19 356 10 5 354
187 179 178 177 170 166 163 157 153 156 158 164 166 167 159 149 153 152 147 146 134 128 110 96 92 94 97 88 79 86 61 45 53 66 84 89 99 109 108 101 78 80 75 46 38 33 70 84 82 67 69 67 59 60 52 63 68 60 62 62 51 41 20 360 8 1 14 27 31 40 30 29 28 31 31 27 27 26 32 37 358 351 26 19 356
186 184 181 177 168 165 162 159 156 159 166 171 168 162 166 167 157 140 141 136 132 134 121 112 100 77 90 108 98 89 69 50 51 54 77 93 102 107 115 110 99 81 94 77 51 56 45 68 82 88 89 80 71 70 67 71 74 61 58 64 57 43 9 336 8 5 5 15 18 20 25 26 28 30 29 29 29 31 31 29 9 16 21 15 6
187 175 169 168 165 162 162 160 161 163 170 169 171 172 160 140 144 140 138 138 135 136 130 123 112 94 79 85 99 104 89 50 42 49 66 84 101 115 119 115 113 111 101 104 91 57 60 65 80 84 89 81 73 70 70 70 77 66 61 60 50 39 2 353 22 16 8 13 14 23 25 24 26 30 30 31 29 26 22 21 18 13 16 19 19
170 172 165 163 164 166 166 165 164 172 170 171 173 165 159 153 140 139 140 136 131 132 137 137 120 118 102 111 122 131 120 93 57 42 50 53 74 90 99 100 126 114 108 95 88 98 87 76 84 89 87 79 73 69 67 63 66 63 48 54 41 21 7 15 16 18 8 15 10 17 29 27 30 27 29 29 26 20 16 16 14 12 15 20 18
165 162 163 166 168 166 169 173 169 164 167 156 160 169 169 152 151 148 146 149 149 149 148 141 137 124 65 83 82 42 78 105 93 63 40 48 58 82 93 109 141 126 109 99 104 95 101 107 96 92 86 79 72 67 63 62 59 62 47 42 33 22 27 29 15 17 12 14 14 21 19 14 18 22 22 23 20 14 11 12 9 6 12 21 30
166 164 163 163 170 171 172 169 167 159 162 169 163 169 164 150 148 148 149 152 152 155 157 154 150 145 107 41 38 69 40 56 86 82 57 40 49 63 92 115 150 140 127 126 132 122 118 108 103 97 87 81 72 67 64 60 60 54 49 42 31 20 26 30 25 26 26 21 23 23 15 12 10 12 14 11 12 7 7 13 5 4 6 13 24
160 164 167 169 168 174 174 173 168 164 165 164 163 157 160 158 153 160 160 155 158 157 162 159 154 170 172 214 224 14 37 42 55 71 73 45 34 63 86 98 115 137 119 125 132 125 123 110 108 101 93 86 79 71 64 61 62 52 47 46 39 32 28 31 35 33 32 30 28 17 10 5 1 8 10 4 4 358 359 11 3 7 3 1 14
165 169 171 170 173 173 171 171 172 169 171 163 161 162 157 156 155 167 161 163 165 170 174 173 176 179 181 189 216 238 262 14 323 23 90 80 35 64 85 101 110 135 124 125 122 126 122 119 112 102 97 90 83 75 67 61 57 58 53 48 47 37 30 29 36 29 41 33 22 11 6 5 359 354 352 357 355 0 6 10 1 2 3 358 10
169 175 172 172 174 167 168 176 175 176 172 179 171 171 164 168 163 164 170 172 174 175 173 178 178 178 189 199 207 216 211 251 192 282 7 157 137 100 97 99 112 111 112 114 122 120 120 115 107 102 94 89 81 74 70 64 58 55 52 50 45 47 39 35 31 44 44 28 21 13 358 345 352 351 351 0 16 17 7 5 358 2 4 5 2
174 169 175 174 171 170 172 174 178 178 177 180 176 170 166 164 160 163 172 173 177 180 176 179 180 182 193 200 208 205 211 218 211 205 173 196 198 142 120 112 113 110 108 115 116 115 111 106 104 99 91 80 78 79 81 75 62 51 45 38 38 45 49 44 43 47 44 28 18 2 353 348 336 357 11 17 21 16 8 4 1 359 359 355 349
174 178 176 174 173 178 178 177 173 176 183 177 174 179 180 171 169 175 178 178 173 183 181 189 188 189 196 186 188 201 221 227 214 196 189 178 170 165 155 138 146 145 131 126 127 123 116 111 102 96 93 81 78 75 69 65 63 63 52 44 42 40 47 59 64 60 50 32 13 354 357 359 8 7 7 23 23 15 9 11 6 2 2 353 5
178 175 172 169 180 182 181 178 181 177 179 188 193 186 181 185 188 193 200 177 176 173 184 196 196 196 183 174 173 199 218 225 227 184 175 173 166 157 160 168 154 153 152 140 121 103 105 102 109 103 97 104 95 82 76 72 68 59 57 49 45 43 37 25 34 33 21 19 21 11 5 357 7 4 11 25 25 14 10 10 10 5 2 11 21
178 179 176 180 181 181 183 184 181 179 177 181 175 167 13 153 197 188 196 203 208 200 180 186 194 180 182 197 185 180 197 214 170 161 167 175 184 174 160 151 156 147 151 148 130 125 125 124 128 128 125 128 115 106 97 91 87 67 55 48 43 43 38 37 35 27 20 24 22 14 6 358 4 9 16 24 15 17 15 15 11 10 13 15 15
182 182 181 188 185 185 184 184 184 180 179 175 176 177 172 75 57 88 180 189 193 195 199 212 176 181 178 183 213 217 118 149 165 163 166 171 173 169 161 161 157 153 146 132 115 139 141 140 144 133 141 130 124 131 130 132 111 99 78 59 45 44 41 42 28 16 25 22 24 19 6 8 8 10 20 21 15 9 11 17 16 16 22 17 15
186 190 190 189 185 185 186 185 180 178 181 178 178 180 178 181 189 56 68 161 182 190 195 188 182 184 193 183 163 179 188 177 165 160 165 171 176 175 170 167 168 161 171 145 127 158 148 149 155 163 157 141 143 141 145 137 137 132 124 85 59 39 38 42 25 21 31 32 23 21 12 11 11 14 17 23 18 18 14 15 16 16 17 17 19
190 190 190 188 186 188 185 184 184 183 181 180 186 183 183 187 190 195 58 67 122 167 188 189 185 186 187 185 179 172 169 169 169 158 162 174 174 176 171 169 167 162 146 148 158 161 172 164 164 169 169 159 156 157 160 150 143 144 141 122 109 80 60 43 33 52 44 40 32 32 21 17 17 16 23 25 23 23 22 20 16 15 16 13 14
196 189 188 188 185 187 190 187 186 189 188 187 186 186 194 193 196 182 169 156 106 76 93 173 182 175 185 182 180 166 159 163 167 170 173 173 170 163 153 152 155 168 176 176 161 173 168 169 174 175 175 157 157 155 155 162 154 144 134 129 126 123 105 87 67 57 56 45 48 44 30 31 20 23 28 28 30 28 26 23 17 14 13 12 4
201 200 192 184 188 192 193 190 190 188 185 186 186 189 194 196 186 177 183 188 190 188 189 176 184 176 175 179 176 164 165 166 168 169 171 168 163 153 133 125 144 163 155 178 180 166 169 180 176 180 173 171 176 168 166 166 163 160 155 152 150 146 132 90 68 60 58 52 55 49 37 31 32 31 29 27 27 31 29 23 22 15 8 7 2
198 195 190 193 193 193 194 196 193 190 188 190 190 192 190 181 181 192 195 192 188 189 191 185 166 184 170 169 170 168 168 169 167 169 168 166 162 151 153 181 173 185 188 179 182 181 178 176 174 174 176 177 166 173 168 166 172 166 160 157 159 148 134 108 105 91 73 68 57 49 48 50 38 35 38 42 42 37 31 25 19 13 5 6 358
195 195 191 193 197 195 196 196 197 197 195 190 185 184 181 183 187 185 185 188 193 195 185 156 126 115 98 181 165 168 172 168 165 163 168 170 174 180 198 180 189 177 188 182 176 166 182 188 184 171 175 173 174 170 167 168 161 157 160 158 149 147 135 129 123 124 108 94 85 66 56 60 46 43 50 49 39 33 27 20 18 12 7 360 355
197 197 194 193 188 190 192 198 201 194 192 191 190 185 183 184 185 185 185 191 190 184 179 182 185 178 185 195 174 166 160 151 137 136 158 169 177 200 198 201 193 185 191 182 179 174 184 172 177 179 179 172 167 167 168 165 163 160 158 155 154 150 143 124 120 121 127 108 101 88 76 84 72 57 40 40 31 22 10 356 7 7 1 0 5
213 213 200 181 183 190 194 193 188 186 192 189 190 188 189 187 186 186 190 189 187 188 190 183 189 196 195 164 156 147 135 151 181 193 188 195 194 191 188 190 196 201 191 179 173 178 174 175 182 184 173 173 166 167 168 163 163 162 159 157 157 156 151 153 150 142 147 139 134 115 131 135 132 86 37 38 40 18 3 353 352 355 360 357 356
204 204 195 185 192 197 190 185 184 187 188 187 193 195 194 194 193 193 192 190 192 191 189 190 198 204 183 165 166 162 180 186 192 194 192 192 195 195 189 191 196 196 188 179 181 179 174 178 174 176 178 177 169 167 170 164 166 162 162 166 163 165 164 160 159 159 165 163 156 154 148 157 164 176 44 57 44 17 3 351 343 336 347 344 347
206 202 194 193 191 174 178 182 187 194 191 193 194 192 200 200 200 198 196 195 194 192 195 199 204 195 179 187 180 178 184 191 192 195 198 197 195 192 192 198 193 192 190 184 183 179 178 168 175 179 179 177 173 167 166 167 162 163 167 161 163 162 163 165 168 172 166 164 172 168 160 163 172 195 130 32 24 25 14 319 322 329 332 343 346
203 197 187 184 174 183 192 196 197 193 192 194 192 195 198 199 200 199 199 197 197 196 198 204 204 189 188 188 186 189 191 198 192 197 201 199 197 200 202 201 199 196 186 187 178 177 176 173 172 177 176 176 172 170 164 169 169 168 165 166 164 164 169 175 176 179 178 169 173 174 166 174 182 199 221 5 33 37 1 342 337 327 338 341 342
197 195 192 181 185 193 197 201 194 189 194 195 200 199 198 196 197 199 201 203 201 198 201 203 201 185 189 192 193 191 201 201 198 200 200 199 200 201 201 204 199 199 197 188 176 173 171 171 172 178 180 178 176 173 175 174 171 167 165 166 166 168 175 175 179 186 176 170 175 177 180 187 179 178 179 171 166 318 327 335 331 322 331 338 336
193 196 193 189 194 200 205 198 192 197 196 198 199 198 197 197 197 196 200 204 206 205 205 206 198 188 190 188 187 189 206 207 205 203 200 198 200 203 204 206 199 187 187 180 176 174 169 171 174 174 175 174 175 175 179 171 167 168 167 163 165 172 173 173 184 185 178 175 170 177 184 185 183 176 185 189 202 233 324 335 320 317 326 329 332
192 193 192 193 197 201 196 195 205 203 203 198 202 204 200 198 196 197 199 205 207 208 210 210 198 190 187 182 186 194 203 206 207 204 200 199 202 206 205 201 197 196 190 186 175 170 173 172 169 168 172 177 175 176 175 173 172 171 168 165 163 172 180 183 190 175 162 154 158 173 182 185 184 181 187 192 197 218 241 288 289 309 318 328 329
192 192 191 194 191 191 188 196 199 200 201 202 202 201 198 198 202 200 200 203 203 205 211 208 202 196 193 191 192 197 202 203 205 203 201 202 204 205 204 200 198 196 193 186 177 180 178 173 168 173 176 174 172 176 174 171 174 170 167 169 170 172 175 167 153 152 162 164 163 172 174 176 185 192 190 184 193 214 233 251 263 274 304 316 322
191 192 191 192 192 195 197 200 198 201 201 202 202 201 198 200 202 203 203 203 202 203 207 206 199 200 198 196 196 200 202 200 201 200 203 204 204 203 199 198 195 193 190 183 180 180 178 178 174 172 171 171 167 169 171 173 174 172 171 169 165 156 156 160 160 161 164 164 159 160 171 173 179 183 192 203 207 213 228 246 248 271 300 313 320
195 195 195 194 194 196 201 200 203 202 202 199 202 203 203 203 203 204 205 204 205 205 206 206 204 203 200 203 203 203 201 202 201 202 202 203 204 200 195 193 193 192 186 182 181 181 177 175 173 170 170 169 171 170 170 171 171 168 168 167 163 161 158 158 147 152 153 156 164 167 171 174 186 186 187 190 196 194 211 235 253 269 295 309 314
197 197 196 195 197 198 198 198 199 193 196 205 207 207 204 204 205 207 206 205 204 206 205 206 206 203 203 206 203 204 202 201 203 203 204 203 198 195 195 194 192 188 182 184 183 183 179 172 171 166 167 166 167 166 167 168 170 170 170 168 165 161 158 159 157 160 155 156 158 164 169 179 191 192 189 195 198 202 217 239 250 267 287 303 297
199 198 199 197 199 202 200 197 196 196 201 197 191 206 218 216 215 212 209 207 208 207 209 207 206 204 203 204 203 203 200 204 206 205 198 197 198 196 192 191 190 188 187 184 182 182 174 165 166 166 164 166 166 168 168 169 172 172 171 170 164 162 159 158 155 152 158 166 164 170 169 176 181 188 190 194 196 202 215 231 252 273 288 293 297
200 200 201 200 201 200 195 193 195 194 190 190 197 201 206 209 212 209 207 210 213 212 209 205 206 205 206 206 203 202 204 208 204 191 196 200 194 191 192 190 189 188 187 182 176 178 175 165 167 167 165 166 170 170 171 172 172 175 173 167 165 163 158 156 158 165 164 156 164 165 177 178 187 187 192 190 199 202 215 224 246 263 287 294 303